[[{"header":{"parameterUnit":"m.s-1","parameterCategory":1,"la1":30.2991,"la2":30.254,"lo1":-89.0895,"lo2":-89.0444,"dy":0.0017,"dx":0.0017,"nx":28,"ny":28,"refTime":"2024-05-01T03:00:00:Z","depth":0,"parameterNumber":2,"parameterNumberName":"U-component_of_WINDS"},"data":[0,0,0,0,0,0,0,0,0,0,0,0,0,0,0,0,0,0,0,0,0,0,0,0,0,0,0,0,0,0,0,0,0,0,0,0,0,0,0,0,0,0,0,0,0,0,0,0,0,0,0,0,0,0,0,0,0,0,-2.3488,-2.3488,0,-2.3482,-2.3482,-2.3481,-2.3438,-2.3437,-2.3436,-2.3435,-2.3427,-2.3428,-2.3429,0,0,0,0,0,0,0,0,0,0,0,0,0,-2.3464,-2.3465,-2.3488,-2.3488,-2.3488,-2.3482,-2.3482,-2.3481,-2.3438,-2.3437,-2.3436,-2.3435,-2.3427,-2.3428,-2.3429,0,0,0,0,0,0,0,0,0,0,0,0,0,-2.3468,-2.3465,-2.3488,-2.3466,-2.3464,-2.3482,-2.3482,-2.3481,-2.3439,-2.3437,-2.3436,-2.3434,-2.3427,-2.3428,-2.3429,-2.3468,0,0,-2.3433,-2.3433,0,0,0,0,0,0,0,0,-2.3468,-2.3469,-2.3469,-2.3468,-2.3465,-2.3459,-2.347,-2.3477,-2.3439,-2.3448,-2.3435,-2.3433,-2.3439,-2.3439,-2.3441,-2.3467,-2.3467,-2.3433,-2.3434,-2.3434,-2.3434,0,0,0,0,0,0,0,-2.3468,-2.3469,-2.3486,-2.3469,-2.3467,-2.3456,-2.3455,-2.3471,-2.3453,-2.3447,-2.3444,-2.3444,-2.3438,-2.344,-2.3441,-2.3467,-2.3433,-2.3434,-2.3435,-2.3435,-2.3525,-2.3527,0,0,0,0,0,0,-2.3471,-2.3469,-2.3486,-2.3485,-2.3463,-2.3458,-2.3457,-2.3463,-2.3452,-2.3449,-2.3445,-2.3442,-2.3439,-2.344,-2.344,-2.3485,-2.3434,-2.3435,-2.3436,-2.3523,-2.3525,-2.3527,0,0,0,0,0,0,-2.347,-2.3472,-2.3486,-2.3476,-2.3477,-2.346,-2.3467,-2.3463,-2.3466,-2.3451,-2.3447,-2.3451,-2.3438,-2.3439,-2.3461,-2.3484,-2.3436,-2.3437,-2.3521,-2.3524,-2.3526,-2.3574,0,0,0,0,0,0,-2.347,-2.3473,-2.3487,-2.3477,-2.3478,-2.3507,-2.3469,-2.3464,-2.3468,-2.3464,-2.3456,-2.3453,-2.3437,-2.346,-2.3463,-2.3485,-2.3438,-2.3519,-2.3523,-2.3526,-2.357,-2.3578,-2.3584,0,0,0,0,0,-2.3469,-2.35,-2.3488,-2.349,-2.3495,-2.3508,-2.3509,-2.349,-2.347,-2.3484,-2.3475,-2.3453,-2.3482,-2.3463,-2.3465,-2.3488,-2.3518,-2.3522,-2.3525,-2.3567,-2.3576,-2.3584,0,0,0,0,0,0,-2.3512,-2.3498,-2.3484,-2.3513,-2.3512,-2.3501,-2.3518,-2.3501,-2.3505,-2.3501,-2.3478,-2.3476,-2.3502,-2.3498,-2.3477,-2.3525,-2.3496,-2.3501,-2.3527,-2.3536,-2.3543,-2.3542,-2.3438,0,0,0,0,0,-2.3525,-2.3537,-2.3524,-2.3551,-2.3551,-2.3535,-2.354,-2.3526,-2.3524,-2.3523,-2.3516,-2.3515,-2.3523,-2.353,-2.3537,-2.357,-2.3568,-2.3588,-2.3595,-2.36,-2.3604,-2.3622,-2.363,-2.354,-2.354,-2.354,0,0,-2.3551,-2.3545,-2.3554,-2.3559,-2.3557,-2.357,-2.3535,-2.355,-2.3559,-2.3526,-2.3546,-2.3541,-2.3539,-2.3567,-2.3579,-2.3564,-2.3629,-2.3605,-2.361,-2.361,-2.3627,-2.3635,-2.3643,-2.3542,-2.3542,-2.3542,0,0,-2.3605,-2.3602,-2.3624,-2.3624,-2.3621,-2.3611,-2.3616,-2.3608,-2.3603,-2.3624,-2.36,-2.3611,-2.3627,-2.3626,-2.3628,-2.3685,-2.3665,-2.3688,-2.3724,-2.3742,-2.3749,-2.3755,-2.3775,-2.3782,-2.3692,-2.3692,-2.3692,0,-2.3638,-2.3656,-2.3638,-2.3655,-2.3658,-2.363,-2.3652,-2.3652,-2.3652,-2.3655,-2.3639,-2.3659,-2.3655,-2.3683,-2.3697,-2.37,-2.3705,-2.3688,-2.3749,-2.3755,-2.3761,-2.378,-2.3787,-2.3695,-2.3695,-2.3694,-2.3694,0,-2.3697,-2.371,-2.3729,-2.373,-2.3736,-2.3756,-2.374,-2.3748,-2.3735,-2.3726,-2.3748,-2.3744,-2.375,-2.3756,-2.3742,-2.3782,-2.3773,-2.3754,-2.3723,-2.3773,-2.379,-2.3797,-2.3699,-2.3698,-2.3697,-2.3697,0,0,-2.3775,-2.3768,-2.3775,-2.3776,-2.3772,-2.3782,-2.3802,-2.3808,-2.3816,-2.3818,-2.3833,-2.3848,-2.383,-2.3832,-2.3819,-2.3835,-2.388,-2.3813,-2.3813,-2.3825,-2.3924,-2.3938,-2.3946,-2.3868,-2.3869,-2.387,-2.3924,0,-2.3826,-2.3858,-2.3843,-2.3877,-2.3889,-2.3864,-2.3881,-2.3881,-2.3874,-2.3884,-2.3877,-2.3888,-2.3864,-2.3865,-2.388,-2.3872,-2.39,-2.3868,-2.3881,-2.3882,-2.3881,-2.3955,-2.397,-2.402,-2.3931,-2.3932,-2.3933,0,-2.389,-2.3896,-2.3931,-2.3926,-2.3931,-2.3946,-2.3952,-2.3962,-2.3962,-2.3956,-2.396,-2.3943,-2.3962,-2.3934,-2.3959,-2.3938,-2.3943,-2.394,-2.3942,-2.3941,-2.3909,-2.3955,-2.4036,-2.4043,-2.3943,-2.3942,-2.3942,0,-2.3943,-2.3959,-2.3982,-2.3984,-2.398,-2.3991,-2.399,-2.3989,-2.3994,-2.4,-2.4003,-2.401,-2.4014,-2.402,-2.4006,-2.3987,-2.4034,-2.4004,-2.4029,-2.4029,-2.4038,-2.4037,-2.4119,-2.4044,-2.4044,-2.4044,-2.4044,0,-2.4001,-2.4023,-2.4006,-2.402,-2.4045,-2.4028,-2.4053,-2.4049,-2.4049,-2.4062,-2.4041,-2.4054,-2.4036,-2.4047,-2.4036,-2.4059,-2.4061,-2.4056,-2.4053,-2.4057,-2.4058,-2.4059,-2.4055,-2.4046,-2.4045,-2.4045,-2.4045,0,-2.4062,-2.4052,-2.4076,-2.4071,-2.407,-2.4089,-2.4084,-2.4097,-2.4091,-2.4107,-2.411,-2.4099,-2.4111,-2.4099,-2.411,-2.4103,-2.4133,-2.4126,-2.4133,-2.4131,-2.4156,-2.4153,-2.424,-2.425,-2.417,-2.4171,-2.4171,0,-2.4099,-2.4116,-2.4114,-2.4121,-2.4122,-2.4134,-2.414,-2.4126,-2.4133,-2.4135,-2.4148,-2.4159,-2.4166,-2.4187,-2.418,-2.4189,-2.418,-2.421,-2.4181,-2.4185,-2.4179,-2.4178,-2.4179,-2.4215,-2.4216,-2.4217,-2.4218,0,-2.4166,-2.4161,-2.417,-2.4179,-2.4187,-2.4193,-2.4197,-2.4205,-2.4189,-2.4199,-2.4211,-2.4218,-2.423,-2.4241,-2.4248,-2.4246,-2.4229,-2.4227,-2.4233,-2.4237,-2.424,-2.4238,-2.4148,-2.4225,-2.4224,-2.4224,-2.4223,-2.4223,-2.4215,-2.4229,-2.423,-2.4242,-2.4245,-2.4249,-2.4262,-2.4257,-2.4268,-2.4277,-2.4268,-2.4283,-2.4285,-2.4292,-2.4293,-2.4305,-2.4292,-2.4301,-2.4303,-2.4305,-2.4309,-2.424,-2.4307,-2.4306,-2.4306,-2.4306,-2.4306,0,-2.428,-2.428,-2.4291,-2.4299,-2.4308,-2.4294,-2.4298,-2.4307,-2.4321,-2.4324,-2.4333,-2.4348,-2.4359,-2.4353,-2.4363,-2.4374,-2.4366,-2.4376,-2.4375,-2.4375,-2.432,-2.4313,-2.4382,-2.4382,-2.4382,-2.4382,-2.4382,-2.4382,-2.4314,-2.4338,-2.4333,-2.4357,-2.4357,-2.4373,-2.4377,-2.4381,-2.4384,-2.4402,-2.4411,-2.4408,-2.4408,-2.4418,-2.4427,-2.4425,-2.4429,-2.4442,-2.4438,-2.4386,-2.4378,-2.4371,-2.4365,-2.4444,-2.4444,-2.4491,-2.4492,-2.4492]},{"header":{"parameterUnit":"m.s-1","parameterCategory":1,"la1":30.2991,"la2":30.254,"lo1":-89.0895,"lo2":-89.0444,"dy":0.0017,"dx":0.0017,"nx":28,"ny":28,"refTime":"2024-05-01T03:00:00:Z","depth":0,"parameterNumber":3,"parameterNumberName":"V-component_of_WINDS"},"data":[0,0,0,0,0,0,0,0,0,0,0,0,0,0,0,0,0,0,0,0,0,0,0,0,0,0,0,0,0,0,0,0,0,0,0,0,0,0,0,0,0,0,0,0,0,0,0,0,0,0,0,0,0,0,0,0,0,0,1.6498,1.6498,0,1.6524,1.6524,1.6525,1.6556,1.6556,1.6557,1.6557,1.658,1.658,1.658,0,0,0,0,0,0,0,0,0,0,0,0,0,1.6471,1.6471,1.6498,1.6498,1.6498,1.6524,1.6525,1.6525,1.6556,1.6556,1.6557,1.6558,1.658,1.658,1.658,0,0,0,0,0,0,0,0,0,0,0,0,0,1.6488,1.6471,1.6497,1.6517,1.6519,1.6524,1.6525,1.6525,1.6556,1.6556,1.6557,1.6558,1.658,1.658,1.658,1.6567,0,0,1.6581,1.6581,0,0,0,0,0,0,0,0,1.6487,1.6489,1.6514,1.6516,1.6518,1.6538,1.6523,1.6539,1.6556,1.6542,1.6557,1.6558,1.6565,1.6566,1.657,1.6568,1.6569,1.6581,1.6581,1.6581,1.6581,0,0,0,0,0,0,0,1.6486,1.6488,1.6508,1.6514,1.6517,1.6524,1.6527,1.6526,1.6549,1.6543,1.6545,1.6548,1.6566,1.6569,1.657,1.6569,1.6581,1.6581,1.6581,1.6581,1.656,1.6559,0,0,0,0,0,0,1.6482,1.6487,1.6507,1.6509,1.6504,1.6523,1.6527,1.653,1.6549,1.6552,1.6548,1.655,1.6569,1.657,1.6571,1.6558,1.6581,1.6581,1.6581,1.656,1.6559,1.6559,0,0,0,0,0,0,1.6482,1.6484,1.6506,1.6499,1.6502,1.6523,1.6527,1.6531,1.6534,1.6552,1.6556,1.6547,1.6569,1.6571,1.6568,1.6559,1.6581,1.6581,1.6561,1.656,1.6559,1.653,0,0,0,0,0,0,1.6481,1.6484,1.6479,1.6498,1.6502,1.6503,1.6526,1.6531,1.6535,1.6538,1.6553,1.6556,1.657,1.6568,1.6569,1.656,1.6582,1.6562,1.6561,1.6559,1.6532,1.6528,1.6525,0,0,0,0,0,1.648,1.6468,1.6479,1.6481,1.6497,1.6503,1.6505,1.6523,1.6534,1.6529,1.6542,1.6555,1.656,1.6567,1.6568,1.6559,1.6563,1.6561,1.656,1.6533,1.6529,1.6525,0,0,0,0,0,0,1.6445,1.6471,1.6483,1.6477,1.6488,1.6508,1.6503,1.6517,1.6523,1.6525,1.6546,1.6549,1.6544,1.6552,1.6559,1.6548,1.6564,1.6562,1.6543,1.6539,1.6536,1.6534,1.6582,0,0,0,0,0,1.6437,1.644,1.6463,1.6456,1.6461,1.6481,1.6484,1.6497,1.6508,1.6512,1.6524,1.6533,1.6537,1.6539,1.6543,1.6534,1.6538,1.6528,1.6525,1.6522,1.652,1.6517,1.6513,1.6554,1.6554,1.6554,0,0,1.6419,1.6434,1.6435,1.6449,1.6459,1.6461,1.6484,1.6485,1.6487,1.6512,1.6511,1.652,1.6531,1.6526,1.6524,1.6532,1.651,1.652,1.6517,1.6517,1.6515,1.6511,1.6508,1.6552,1.6553,1.6553,0,0,1.6389,1.6401,1.6397,1.6408,1.6423,1.6437,1.6436,1.6455,1.6463,1.6463,1.6482,1.6484,1.649,1.6498,1.6502,1.6479,1.6492,1.648,1.6461,1.6457,1.6454,1.6452,1.6443,1.644,1.6478,1.6478,1.6478,0,1.6365,1.6371,1.6393,1.6394,1.64,1.6425,1.6422,1.643,1.6445,1.6448,1.6458,1.6467,1.6476,1.6474,1.6469,1.6471,1.6471,1.6477,1.6453,1.6451,1.6448,1.6441,1.6438,1.6476,1.6476,1.6477,1.6477,0,1.6341,1.6345,1.634,1.6357,1.6362,1.6361,1.6382,1.6385,1.6398,1.6411,1.6412,1.6424,1.6433,1.6433,1.6445,1.6433,1.6437,1.645,1.6465,1.6443,1.6436,1.6433,1.6474,1.6475,1.6475,1.6475,0,0,1.6287,1.6319,1.6316,1.6325,1.6346,1.6348,1.6348,1.6359,1.6361,1.6371,1.6372,1.6378,1.639,1.6395,1.6409,1.6406,1.6388,1.6419,1.642,1.6413,1.6375,1.6366,1.6362,1.6397,1.6397,1.6396,1.6375,0,1.626,1.6263,1.6284,1.6281,1.6285,1.6311,1.6311,1.6323,1.6336,1.6341,1.6354,1.6358,1.6374,1.6378,1.6377,1.639,1.638,1.6392,1.6397,1.6397,1.6393,1.6358,1.6347,1.6326,1.6372,1.6372,1.6371,0,1.6228,1.624,1.6237,1.626,1.6263,1.6263,1.6275,1.6279,1.6294,1.6304,1.6311,1.6328,1.6329,1.6345,1.6347,1.6355,1.6358,1.6365,1.6365,1.6365,1.6382,1.6357,1.632,1.6316,1.6367,1.6368,1.6368,0,1.6189,1.6204,1.6205,1.6212,1.6238,1.6238,1.6248,1.6264,1.627,1.628,1.6284,1.6293,1.6298,1.6305,1.6324,1.6334,1.6324,1.6341,1.6331,1.6331,1.6327,1.6327,1.6289,1.633,1.633,1.633,1.633,0,1.6157,1.6154,1.6188,1.6189,1.6187,1.6212,1.6209,1.6222,1.6237,1.624,1.6262,1.6264,1.6289,1.6294,1.6308,1.6308,1.631,1.6317,1.6321,1.6315,1.6314,1.6317,1.6318,1.6329,1.633,1.633,1.633,0,1.6112,1.6135,1.6138,1.6164,1.617,1.6168,1.619,1.6191,1.6207,1.621,1.6213,1.6236,1.6243,1.6263,1.6275,1.6285,1.628,1.6287,1.6276,1.6278,1.6267,1.6268,1.6229,1.6225,1.6269,1.6269,1.6268,0,1.6089,1.6088,1.6115,1.612,1.6131,1.6138,1.6145,1.6169,1.6175,1.6194,1.6193,1.6203,1.6211,1.6222,1.6239,1.6249,1.6256,1.6242,1.6257,1.6252,1.6256,1.6255,1.6256,1.6238,1.6237,1.6237,1.6236,0,1.6046,1.6059,1.6068,1.6083,1.6091,1.6102,1.6115,1.6118,1.6146,1.6151,1.616,1.6168,1.6181,1.619,1.6203,1.6213,1.6229,1.6232,1.623,1.6223,1.6217,1.622,1.6266,1.6232,1.6233,1.6233,1.6233,1.6233,1.6012,1.6013,1.6033,1.6044,1.6057,1.6069,1.6072,1.609,1.6098,1.6113,1.6127,1.6135,1.6151,1.617,1.618,1.6186,1.6194,1.6191,1.619,1.6189,1.6187,1.6217,1.6188,1.6188,1.6188,1.6188,1.6188,0,1.597,1.5985,1.5995,1.6014,1.6023,1.604,1.6056,1.6062,1.6069,1.6084,1.6093,1.6104,1.6114,1.6134,1.6145,1.6146,1.6154,1.6148,1.6148,1.615,1.6178,1.6179,1.6142,1.6142,1.6142,1.6142,1.6142,1.6142,1.595,1.5953,1.5968,1.5979,1.5993,1.6003,1.6011,1.6022,1.6035,1.6047,1.6056,1.607,1.6087,1.61,1.611,1.6115,1.6118,1.611,1.6118,1.6144,1.6148,1.6152,1.6153,1.6111,1.6111,1.6089,1.6089,1.6089]}]]